Hourly Weather Kozyrshchyna

Today, 19 October, Monday

Time Temperature Precipitation Wind Pressure Humidity
00:00 +5°C° 0.1 mm 6 mps 741 mmHg 85%
01:00 +5°C° 0.1 mm 6 mps 741 mmHg 86%
02:00 +5°C° 0 mm 6 mps 742 mmHg 87%
03:00 +6°C° 0.1 mm 5 mps 742 mmHg 88%
04:00 +5°C° 0.1 mm 5 mps 742 mmHg 90%
05:00 +5°C° 0.1 mm 5 mps 742 mmHg 91%
06:00 +5°C° 0.1 mm 5 mps 743 mmHg 91%
07:00 +5°C° 0.1 mm 4 mps 743 mmHg 91%
08:00 +5°C° 0 mm 4 mps 744 mmHg 89%
09:00 +6°C° 0.1 mm 5 mps 744 mmHg 83%
10:00 +7°C° 0.1 mm 5 mps 745 mmHg 77%
11:00 +8°C° 0.1 mm 5 mps 745 mmHg 71%
12:00 +8°C° 0.1 mm 5 mps 745 mmHg 69%
13:00 +8°C° 0.1 mm 5 mps 745 mmHg 67%
14:00 +8°C° 0.1 mm 5 mps 745 mmHg 65%
15:00 +8°C° 0.1 mm 4 mps 745 mmHg 68%
16:00 +8°C° 0.1 mm 3 mps 745 mmHg 71%
17:00 +8°C° 0.1 mm 3 mps 745 mmHg 74%
18:00 +7°C° 0 mm 3 mps 746 mmHg 78%
19:00 +7°C° 0 mm 3 mps 746 mmHg 81%
20:00 +5°C° 0 mm 3 mps 746 mmHg 84%
21:00 +5°C° 0 mm 3 mps 746 mmHg 86%
22:00 +4°C° 0 mm 3 mps 747 mmHg 88%
23:00 +4°C° 0 mm 3 mps 747 mmHg 90%

Tomorrow, 20 October, Tuesday

Time Temperature Precipitation Wind Pressure Humidity
00:00 +4°C° 0 mm 3 mps 747 mmHg 91%
01:00 +4°C° 0 mm 3 mps 747 mmHg 92%
02:00 +4°C° 0 mm 3 mps 748 mmHg 93%
03:00 +4°C° 0 mm 3 mps 748 mmHg 93%
04:00 +4°C° 0 mm 3 mps 748 mmHg 93%
05:00 +4°C° 0 mm 3 mps 748 mmHg 92%
06:00 +4°C° 0 mm 3 mps 748 mmHg 92%
07:00 +4°C° 0 mm 3 mps 748 mmHg 91%
08:00 +4°C° 0 mm 3 mps 748 mmHg 90%
09:00 +5°C° 0 mm 3 mps 748 mmHg 84%
10:00 +8°C° 0 mm 3 mps 749 mmHg 77%
11:00 +9°C° 0 mm 3 mps 749 mmHg 71%
12:00 +10°C° 0 mm 3 mps 749 mmHg 68%
13:00 +10°C° 0 mm 3 mps 749 mmHg 66%
14:00 +11°C° 0 mm 3 mps 749 mmHg 64%
15:00 +10°C° 0 mm 2 mps 749 mmHg 68%
16:00 +9°C° 0 mm 2 mps 748 mmHg 72%
17:00 +9°C° 0 mm 1 mps 748 mmHg 76%
18:00 +8°C° 0 mm 2 mps 748 mmHg 77%
19:00 +7°C° 0 mm 2 mps 748 mmHg 78%
20:00 +7°C° 0 mm 2 mps 748 mmHg 80%
21:00 +7°C° 0 mm 3 mps 748 mmHg 79%
22:00 +5°C° 0 mm 3 mps 747 mmHg 78%
23:00 +5°C° 0 mm 3 mps 747 mmHg 78%

Day after tomorrow, 21 October, Wednesday

Time Temperature Precipitation Wind Pressure Humidity
00:00 +5°C° 0 mm 3 mps 747 mmHg 77%
01:00 +5°C° 0 mm 4 mps 746 mmHg 76%
02:00 +5°C° 0 mm 4 mps 746 mmHg 76%
03:00 +5°C° 0 mm 4 mps 746 mmHg 76%
04:00 +5°C° 0 mm 4 mps 745 mmHg 76%
05:00 +5°C° 0 mm 3 mps 745 mmHg 76%
06:00 +5°C° 0 mm 3 mps 745 mmHg 76%
07:00 +5°C° 0 mm 4 mps 745 mmHg 75%
08:00 +6°C° 0 mm 4 mps 744 mmHg 75%
09:00 +7°C° 0 mm 4 mps 744 mmHg 70%
10:00 +8°C° 0 mm 5 mps 744 mmHg 65%
11:00 +10°C° 0 mm 5 mps 744 mmHg 60%
12:00 +10°C° 0 mm 5 mps 744 mmHg 59%
13:00 +12°C° 0 mm 5 mps 744 mmHg 58%
14:00 +13°C° 0 mm 5 mps 744 mmHg 57%
15:00 +12°C° 0 mm 4 mps 743 mmHg 60%
16:00 +12°C° 0 mm 4 mps 743 mmHg 63%
17:00 +11°C° 0 mm 3 mps 743 mmHg 66%
18:00 +10°C° 0 mm 3 mps 743 mmHg 67%
19:00 +10°C° 0 mm 3 mps 743 mmHg 68%
20:00 +9°C° 0 mm 3 mps 743 mmHg 69%
21:00 +9°C° 0 mm 3 mps 743 mmHg 68%
22:00 +8°C° 0 mm 3 mps 743 mmHg 68%
23:00 +7°C° 0 mm 4 mps 742 mmHg 67%

22 October, Thursday

Time Temperature Precipitation Wind Pressure Humidity
00:00 +7°C° 0 mm 4 mps 742 mmHg 67%
01:00 +7°C° 0 mm 4 mps 742 mmHg 67%
02:00 +7°C° 0 mm 4 mps 742 mmHg 68%
03:00 +6°C° 0 mm 4 mps 742 mmHg 68%
04:00 +6°C° 0 mm 4 mps 742 mmHg 68%
05:00 +6°C° 0 mm 4 mps 742 mmHg 68%
06:00 +7°C° 0 mm 4 mps 742 mmHg 69%
07:00 +7°C° 0 mm 4 mps 742 mmHg 71%
08:00 +7°C° 0 mm 5 mps 743 mmHg 72%
09:00 +9°C° 0 mm 5 mps 743 mmHg 70%
10:00 +12°C° 0 mm 5 mps 743 mmHg 67%
11:00 +13°C° 0 mm 5 mps 743 mmHg 65%
12:00 +14°C° 0 mm 5 mps 743 mmHg 64%
13:00 +15°C° 0 mm 5 mps 743 mmHg 63%
14:00 +17°C° 0 mm 4 mps 743 mmHg 61%
15:00 +15°C° 0 mm 4 mps 743 mmHg 66%
16:00 +14°C° 0 mm 3 mps 743 mmHg 71%
17:00 +13°C° 0 mm 3 mps 742 mmHg 75%
18:00 +13°C° 0 mm 3 mps 743 mmHg 77%
19:00 +12°C° 0 mm 3 mps 743 mmHg 78%
20:00 +11°C° 0 mm 3 mps 743 mmHg 80%
21:00 +11°C° 0 mm 3 mps 743 mmHg 80%
22:00 +11°C° 0 mm 3 mps 743 mmHg 81%
23:00 +10°C° 0 mm 3 mps 743 mmHg 81%

23 October, Friday

Time Temperature Precipitation Wind Pressure Humidity
00:00 +10°C° 0 mm 3 mps 743 mmHg 81%
01:00 +10°C° 0 mm 3 mps 743 mmHg 81%
02:00 +9°C° 0 mm 3 mps 742 mmHg 81%
03:00 +9°C° 0 mm 3 mps 742 mmHg 81%
04:00 +9°C° 0 mm 2 mps 742 mmHg 80%
05:00 +9°C° 0 mm 2 mps 742 mmHg 79%
06:00 +9°C° 0 mm 2 mps 742 mmHg 78%
07:00 +9°C° 0 mm 2 mps 742 mmHg 77%
08:00 +9°C° 0 mm 2 mps 741 mmHg 76%
09:00 +12°C° 0 mm 2 mps 741 mmHg 72%
10:00 +12°C° 0 mm 3 mps 741 mmHg 68%
11:00 +14°C° 0 mm 3 mps 741 mmHg 63%
12:00 +14°C° 0 mm 3 mps 741 mmHg 63%
13:00 +16°C° 0 mm 3 mps 740 mmHg 63%
14:00 +15°C° 0 mm 4 mps 740 mmHg 63%
15:00 +14°C° 0 mm 3 mps 740 mmHg 67%
16:00 +14°C° 0 mm 3 mps 739 mmHg 71%
17:00 +14°C° 0 mm 2 mps 739 mmHg 75%
18:00 +12°C° 0 mm 3 mps 739 mmHg 78%
19:00 +11°C° 0 mm 3 mps 739 mmHg 82%
20:00 +11°C° 0 mm 3 mps 740 mmHg 85%
21:00 +10°C° 0 mm 3 mps 740 mmHg 87%
22:00 +10°C° 0 mm 3 mps 740 mmHg 89%
23:00 +10°C° 0 mm 3 mps 740 mmHg 91%

24 October, Saturday

Time Temperature Precipitation Wind Pressure Humidity
00:00 +9°C° 0 mm 3 mps 740 mmHg 92%
01:00 +9°C° 0 mm 3 mps 740 mmHg 92%
02:00 +9°C° 0 mm 2 mps 740 mmHg 93%
03:00 +9°C° 0 mm 2 mps 740 mmHg 93%
04:00 +9°C° 0 mm 2 mps 740 mmHg 93%
05:00 +9°C° 0 mm 2 mps 740 mmHg 93%
06:00 +9°C° 0 mm 2 mps 740 mmHg 93%
07:00 +10°C° 0 mm 2 mps 740 mmHg 92%
08:00 +10°C° 0 mm 2 mps 740 mmHg 91%
09:00 +12°C° 0 mm 2 mps 740 mmHg 87%
10:00 +12°C° 0 mm 3 mps 740 mmHg 84%
11:00 +13°C° 0 mm 3 mps 740 mmHg 80%
12:00 +13°C° 0 mm 3 mps 740 mmHg 80%
13:00 +13°C° 0 mm 3 mps 740 mmHg 80%
14:00 +13°C° 0 mm 3 mps 740 mmHg 80%
15:00 +12°C° 0 mm 3 mps 740 mmHg 83%
16:00 +12°C° 0 mm 3 mps 740 mmHg 85%
17:00 +11°C° 0 mm 3 mps 740 mmHg 87%
18:00 +11°C° 0 mm 3 mps 741 mmHg 89%
19:00 +11°C° 0 mm 3 mps 741 mmHg 91%
20:00 +11°C° 0 mm 3 mps 741 mmHg 92%
21:00 +12°C° 0 mm 2 mps 742 mmHg 94%
22:00 +12°C° 0 mm 2 mps 742 mmHg 95%
23:00 +12°C° 0 mm 2 mps 742 mmHg 96%

25 October, Sunday

Time Temperature Precipitation Wind Pressure Humidity
00:00 +12°C° 0 mm 2 mps 742 mmHg 97%
01:00 +10°C° 0 mm 2 mps 743 mmHg 97%
02:00 +10°C° 0 mm 2 mps 743 mmHg 97%
03:00 +11°C° 0 mm 1 mps 743 mmHg 97%
04:00 +10°C° 0 mm 1 mps 743 mmHg 97%
05:00 +10°C° 0 mm 1 mps 743 mmHg 96%
06:00 +10°C° 0 mm 1 mps 744 mmHg 96%
07:00 +11°C° 0 mm 1 mps 744 mmHg 95%
08:00 +11°C° 0 mm 1 mps 744 mmHg 94%
09:00 +12°C° 0.1 mm 1 mps 745 mmHg 90%
10:00 +13°C° 0.1 mm 1 mps 745 mmHg 86%
11:00 +13°C° 0.1 mm 1 mps 745 mmHg 82%
12:00 +14°C° 0.1 mm 1 mps 745 mmHg 79%
13:00 +14°C° 0.1 mm 2 mps 745 mmHg 76%
14:00 +15°C° 0.1 mm 2 mps 745 mmHg 73%
15:00 +14°C° 0.1 mm 2 mps 745 mmHg 77%
16:00 +13°C° 0.1 mm 2 mps 745 mmHg 81%
17:00 +12°C° 0.1 mm 2 mps 745 mmHg 85%
18:00 +10°C° 0 mm 2 mps 745 mmHg 86%
19:00 +10°C° 0 mm 3 mps 746 mmHg 87%
20:00 +9°C° 0 mm 3 mps 746 mmHg 88%
21:00 +9°C° 0 mm 3 mps 746 mmHg 88%
22:00 +9°C° 0 mm 3 mps 746 mmHg 88%
23:00 +9°C° 0 mm 3 mps 746 mmHg 88%
Show more